Location: Banksville Park
(38.5557°N, 75.1182°W)
Time: 06:23:32
(UTC+00:00)

CENTAUR R/B - Pass Details

Date: 18 January 2021
Orbit: 742 x 1446 km, 63.5° (Epoch: 01 March)

Event Time Altitude Azimuth Distance (km) Brightness Sun altitude
Rises 23:34:21 0° 305° (NW) 4,400 6.6 -16.9°
Reaches altitude 10° 23:39:48 10° 276° (W) 3,515 6.5 -17.9°
Maximum altitude 23:42:27 12° 258° (WSW) 3,407 6.5 -18.5°
Drops below altitude 10° 23:45:09 10° 240° (WSW) 3,552 6.5 -19.0°
Sets 23:50:49 0° 212° (SSW) 4,512 6.6 -20.1°
